• In Russia
  • List of Countries
  • For 7 days
  • Water Temperature
  • Satellite Maps
  • Weather Map
  • Weather Widgets
  • user-avatar
    Login

    Hourly Weather Konczyce

    Today, 16 July, Monday

    Time Temperature Precipitation Wind Pressure Humidity
    00:00 +18°C° 0 mm 1 mps 748 mmHg 75%
    01:00 +17°C° 0 mm 2 mps 748 mmHg 73%
    02:00 +16°C° 0 mm 2 mps 748 mmHg 74%
    03:00 +16°C° 0 mm 2 mps 748 mmHg 76%
    04:00 +16°C° 0 mm 2 mps 748 mmHg 78%
    05:00 +17°C° 0 mm 2 mps 748 mmHg 75%
    06:00 +19°C° 0 mm 2 mps 748 mmHg 73%
    07:00 +20°C° 0 mm 2 mps 748 mmHg 71%
    08:00 +22°C° 0.1 mm 3 mps 748 mmHg 67%
    09:00 +24°C° 0.1 mm 3 mps 747 mmHg 63%
    10:00 +26°C° 0.1 mm 3 mps 747 mmHg 59%
    11:00 +26°C° 0.1 mm 3 mps 747 mmHg 56%
    12:00 +27°C° 0.1 mm 3 mps 746 mmHg 53%
    13:00 +28°C° 0.1 mm 3 mps 746 mmHg 50%
    14:00 +28°C° 0.3 mm 3 mps 746 mmHg 51%
    15:00 +28°C° 0.3 mm 3 mps 746 mmHg 52%
    16:00 +27°C° 0.3 mm 3 mps 745 mmHg 53%
    17:00 +26°C° 0.1 mm 3 mps 745 mmHg 60%
    18:00 +25°C° 0.1 mm 2 mps 745 mmHg 66%
    19:00 +24°C° 0.1 mm 1 mps 745 mmHg 72%
    20:00 +23°C° 0.4 mm 1 mps 745 mmHg 75%
    21:00 +21°C° 0.4 mm 1 mps 745 mmHg 78%
    22:00 +20°C° 0.4 mm 1 mps 745 mmHg 81%
    23:00 +19°C° 0.3 mm 2 mps 744 mmHg 83%

    Tomorrow, 17 July, Tuesday

    Time Temperature Precipitation Wind Pressure Humidity
    00:00 +18°C° 0.3 mm 2 mps 744 mmHg 86%
    01:00 +17°C° 0.3 mm 2 mps 744 mmHg 88%
    02:00 +17°C° 0 mm 2 mps 744 mmHg 89%
    03:00 +17°C° 0 mm 2 mps 744 mmHg 90%
    04:00 +17°C° 0 mm 3 mps 744 mmHg 91%
    05:00 +18°C° 0 mm 3 mps 744 mmHg 89%
    06:00 +19°C° 0 mm 4 mps 744 mmHg 87%
    07:00 +20°C° 0 mm 5 mps 744 mmHg 85%
    08:00 +20°C° 0.5 mm 5 mps 744 mmHg 84%
    09:00 +20°C° 0.5 mm 6 mps 744 mmHg 83%
    10:00 +20°C° 0.5 mm 6 mps 744 mmHg 83%
    11:00 +20°C° 0.5 mm 6 mps 744 mmHg 83%
    12:00 +20°C° 0.5 mm 7 mps 744 mmHg 83%
    13:00 +20°C° 0.5 mm 7 mps 744 mmHg 83%
    14:00 +20°C° 0.1 mm 7 mps 744 mmHg 82%
    15:00 +20°C° 0.1 mm 7 mps 744 mmHg 82%
    16:00 +20°C° 0.1 mm 7 mps 744 mmHg 82%
    17:00 +18°C° 0.1 mm 7 mps 744 mmHg 83%
    18:00 +19°C° 0.1 mm 6 mps 744 mmHg 85%
    19:00 +19°C° 0.1 mm 5 mps 744 mmHg 86%
    20:00 +17°C° 0 mm 5 mps 744 mmHg 87%
    21:00 +17°C° 0 mm 5 mps 744 mmHg 88%
    22:00 +17°C° 0 mm 5 mps 744 mmHg 90%
    23:00 +17°C° 0.1 mm 5 mps 744 mmHg 90%

    Day after tomorrow, 18 July, Wednesday

    Time Temperature Precipitation Wind Pressure Humidity
    00:00 +16°C° 0.1 mm 5 mps 744 mmHg 91%
    01:00 +16°C° 0.1 mm 5 mps 744 mmHg 91%
    02:00 +16°C° 0.2 mm 5 mps 744 mmHg 91%
    03:00 +17°C° 0.2 mm 5 mps 744 mmHg 91%
    04:00 +17°C° 0.2 mm 6 mps 744 mmHg 92%
    05:00 +17°C° 0.5 mm 6 mps 744 mmHg 91%
    06:00 +17°C° 0.5 mm 6 mps 744 mmHg 91%
    07:00 +17°C° 0.5 mm 6 mps 744 mmHg 90%
    08:00 +19°C° 1.3 mm 6 mps 744 mmHg 89%
    09:00 +19°C° 1.3 mm 6 mps 745 mmHg 87%
    10:00 +19°C° 1.3 mm 6 mps 745 mmHg 86%
    11:00 +20°C° 1.3 mm 6 mps 745 mmHg 86%
    12:00 +20°C° 1.3 mm 6 mps 745 mmHg 86%
    13:00 +20°C° 1.3 mm 5 mps 745 mmHg 86%
    14:00 +20°C° 1.2 mm 5 mps 745 mmHg 86%
    15:00 +20°C° 1.2 mm 4 mps 745 mmHg 86%
    16:00 +20°C° 1.2 mm 4 mps 745 mmHg 86%
    17:00 +20°C° 0.5 mm 4 mps 745 mmHg 87%
    18:00 +20°C° 0.5 mm 4 mps 745 mmHg 88%
    19:00 +20°C° 0.5 mm 4 mps 745 mmHg 90%
    20:00 +19°C° 0.1 mm 4 mps 746 mmHg 90%
    21:00 +19°C° 0.1 mm 4 mps 746 mmHg 91%
    22:00 +19°C° 0.1 mm 4 mps 746 mmHg 92%
    23:00 +18°C° 0.2 mm 4 mps 746 mmHg 92%

    19 July, Thursday

    Time Temperature Precipitation Wind Pressure Humidity
    00:00 +17°C° 0.2 mm 5 mps 746 mmHg 92%
    01:00 +17°C° 0.2 mm 5 mps 746 mmHg 92%
    02:00 +17°C° 0.3 mm 5 mps 746 mmHg 93%
    03:00 +17°C° 0.3 mm 5 mps 746 mmHg 93%
    04:00 +17°C° 0.3 mm 5 mps 746 mmHg 93%
    05:00 +17°C° 0.4 mm 6 mps 746 mmHg 92%
    06:00 +17°C° 0.4 mm 6 mps 746 mmHg 91%
    07:00 +17°C° 0.4 mm 6 mps 747 mmHg 91%
    08:00 +17°C° 0.5 mm 6 mps 747 mmHg 90%
    09:00 +19°C° 0.5 mm 6 mps 747 mmHg 89%
    10:00 +19°C° 0.5 mm 5 mps 747 mmHg 88%
    11:00 +19°C° 0.6 mm 5 mps 747 mmHg 86%
    12:00 +20°C° 0.6 mm 5 mps 747 mmHg 84%
    13:00 +20°C° 0.6 mm 5 mps 747 mmHg 82%
    14:00 +21°C° 0.2 mm 4 mps 747 mmHg 80%
    15:00 +22°C° 0.2 mm 4 mps 747 mmHg 78%
    16:00 +22°C° 0.2 mm 4 mps 747 mmHg 76%
    17:00 +22°C° 0 mm 3 mps 747 mmHg 79%
    18:00 +21°C° 0 mm 3 mps 747 mmHg 82%
    19:00 +21°C° 0 mm 2 mps 747 mmHg 84%
    20:00 +20°C° 0 mm 2 mps 748 mmHg 87%
    21:00 +19°C° 0 mm 2 mps 748 mmHg 89%
    22:00 +18°C° 0 mm 2 mps 748 mmHg 91%
    23:00 +17°C° 0 mm 2 mps 748 mmHg 91%

    20 July, Friday

    Time Temperature Precipitation Wind Pressure Humidity
    00:00 +17°C° 0 mm 2 mps 748 mmHg 91%
    01:00 +17°C° 0 mm 3 mps 748 mmHg 91%
    02:00 +16°C° 0 mm 3 mps 748 mmHg 90%
    03:00 +14°C° 0 mm 3 mps 748 mmHg 90%
    04:00 +14°C° 0 mm 3 mps 748 mmHg 89%
    05:00 +16°C° 0 mm 3 mps 748 mmHg 84%
    06:00 +17°C° 0 mm 3 mps 748 mmHg 79%
    07:00 +18°C° 0 mm 4 mps 748 mmHg 74%
    08:00 +20°C° 0 mm 3 mps 748 mmHg 68%
    09:00 +21°C° 0 mm 3 mps 748 mmHg 61%
    10:00 +24°C° 0 mm 3 mps 748 mmHg 55%
    11:00 +25°C° 0 mm 3 mps 747 mmHg 52%
    12:00 +25°C° 0 mm 3 mps 747 mmHg 49%
    13:00 +26°C° 0 mm 3 mps 747 mmHg 45%
    14:00 +26°C° 0 mm 3 mps 747 mmHg 45%
    15:00 +27°C° 0 mm 3 mps 746 mmHg 45%
    16:00 +27°C° 0 mm 2 mps 746 mmHg 45%
    17:00 +25°C° 0 mm 2 mps 746 mmHg 50%
    18:00 +24°C° 0 mm 1 mps 746 mmHg 56%
    19:00 +23°C° 0 mm 1 mps 746 mmHg 61%
    20:00 +22°C° 0 mm 1 mps 746 mmHg 64%
    21:00 +20°C° 0 mm 1 mps 746 mmHg 67%
    22:00 +19°C° 0 mm 1 mps 746 mmHg 70%
    23:00 +18°C° 0 mm 1 mps 746 mmHg 71%

    21 July, Saturday

    Time Temperature Precipitation Wind Pressure Humidity
    00:00 +18°C° 0 mm 1 mps 746 mmHg 73%
    01:00 +15°C° 0 mm 0 mps 746 mmHg 74%
    02:00 +15°C° 0 mm 0 mps 746 mmHg 74%
    03:00 +15°C° 0 mm 0 mps 746 mmHg 75%
    04:00 +15°C° 0 mm 1 mps 746 mmHg 76%
    05:00 +16°C° 0 mm 0 mps 746 mmHg 72%
    06:00 +18°C° 0 mm 0 mps 746 mmHg 68%
    07:00 +19°C° 0 mm 0 mps 746 mmHg 65%
    08:00 +23°C° 0 mm 1 mps 746 mmHg 61%
    09:00 +24°C° 0 mm 1 mps 746 mmHg 58%
    10:00 +26°C° 0 mm 1 mps 746 mmHg 54%
    11:00 +26°C° 0 mm 1 mps 745 mmHg 52%
    12:00 +27°C° 0 mm 1 mps 745 mmHg 50%
    13:00 +27°C° 0 mm 1 mps 745 mmHg 47%
    14:00 +27°C° 0 mm 1 mps 745 mmHg 48%
    15:00 +27°C° 0 mm 1 mps 745 mmHg 49%
    16:00 +27°C° 0 mm 1 mps 744 mmHg 50%
    17:00 +26°C° 0 mm 1 mps 744 mmHg 56%
    18:00 +24°C° 0 mm 2 mps 744 mmHg 62%
    19:00 +23°C° 0 mm 2 mps 744 mmHg 68%
    20:00 +22°C° 0 mm 1 mps 745 mmHg 71%
    21:00 +21°C° 0 mm 1 mps 745 mmHg 73%
    22:00 +20°C° 0 mm 1 mps 745 mmHg 76%
    23:00 +19°C° 0 mm 1 mps 745 mmHg 77%
    Show more